Juneau, AK

3:36 PM AKDT on July 27, 2017 (GMT -0800)
Juneau International

Weather History for PAJN - August, 2013

Change the Weather History Date:

Saturday, August 17, 2013

  Actual Average Record
Temperature  
Mean Temperature 57 °F 56 °F  
Max Temperature 60 °F 63 °F 78 °F (2004)
Min Temperature 53 °F 49 °F 39 °F (1950)
Degree Days  
Heating Degree Days 8 9  
Month to date heating degree days 76 138  
Since 1 June heating degree days 512 704  
Since 1 July heating degree days 298 389  
Cooling Degree Days 0 0  
Month to date cooling degree days 0 0  
Year to date cooling degree days 9 2  
Since 1 June cooling degree days 9 2  
Growing Degree Days 6 (Base 50)    
Moisture  
Dew Point 54 °F    
Average Humidity 92    
Maximum Humidity 100    
Minimum Humidity 84    
Precipitation  
Precipitation 0.19 in 0.19 in 1.18 in (2009)
Month to date precipitation 1.77 2.81  
Year to date precipitation 37.78 30.25  
Sea Level Pressure  
Sea Level Pressure 29.72 in    
Wind  
Wind Speed 11 mph (East)    
Max Wind Speed 21 mph    
Max Gust Speed 25 mph    
Visibility 10 miles    
Events Rain    
T = Trace of Precipitation, MM = Missing Value Source: NWS Daily Summary

Daily Weather History Graph

Daily Weather History Graph

Search for Another Location

Airport or City:

Trip Planner

Search our weather history database for the weather conditions in past years. The results will help you decide how hot, cold, wet, or windy it might be!

Date:

Astronomy

Aug. 17, 2013 Rise Set
Actual Time 5:25 AM AKDT 8:37 PM AKDT
Civil Twilight 4:38 AM AKDT 9:24 PM AKDT
Nautical Twilight 3:33 AM AKDT 10:27 PM AKDT
Astronomical Twilight 1:36 AM AKDT 12:14 AM AKDT
Moon 6:21 PM AKDT (8/17) 1:09 AM AKDT (8/17)
Length of Visible Light 16h 45m
Length of Day
15h 12m
Waxing Gibbous, 85% of the Moon is Illuminated
Aug 17
Waxing Gibbous
Aug 20
Full
Aug 28
Last Quarter
Sep 5
New
Sep 12
First Quarter

Hourly Weather History & Observations

Time (AKDT) Temp. Dew Point Humidity Pressure Visibility Wind Dir Wind Speed Gust Speed Precip Events Conditions
12:12 AM 55.0 °F 54.0 °F 96% 29.81 in 10.0 mi Calm Calm - N/A   Overcast
12:53 AM 54.0 °F 54.0 °F 100% 29.81 in 10.0 mi Calm Calm - N/A   Overcast
1:53 AM 54.0 °F 53.1 °F 97% 29.80 in 10.0 mi Calm Calm - N/A   Overcast
2:53 AM 53.1 °F 53.1 °F 100% 29.79 in 10.0 mi WNW 4.6 mph - N/A   Overcast
3:53 AM 53.1 °F 52.0 °F 96% 29.78 in 10.0 mi Calm Calm - N/A   Overcast
4:53 AM 55.0 °F 54.0 °F 96% 29.78 in 10.0 mi ESE 6.9 mph - N/A   Overcast
5:53 AM 55.0 °F 54.0 °F 96% 29.77 in 10.0 mi East 8.1 mph - N/A   Overcast
6:53 AM 55.9 °F 53.1 °F 90% 29.76 in 10.0 mi ENE 11.5 mph - N/A   Overcast
7:53 AM 55.9 °F 53.1 °F 90% 29.76 in 10.0 mi East 13.8 mph - N/A   Overcast
8:53 AM 57.0 °F 55.0 °F 93% 29.75 in 10.0 mi East 10.4 mph - N/A   Mostly Cloudy
9:53 AM 60.1 °F 55.0 °F 83% 29.75 in 10.0 mi East 10.4 mph - N/A   Mostly Cloudy
10:53 AM 59.0 °F 55.0 °F 87% 29.74 in 10.0 mi East 11.5 mph - 0.00 in Rain Light Rain
11:53 AM 59.0 °F 55.9 °F 90% 29.73 in 10.0 mi East 10.4 mph - 0.00 in Rain Light Rain
12:53 PM 57.9 °F 55.0 °F 90% 29.72 in 10.0 mi East 9.2 mph - 0.00 in Rain Light Rain
1:53 PM 59.0 °F 55.9 °F 90% 29.70 in 10.0 mi East 11.5 mph - 0.02 in   Overcast
2:53 PM 59.0 °F 54.0 °F 83% 29.70 in 10.0 mi SE 16.1 mph 25.3 mph 0.00 in Rain Light Rain
3:53 PM 57.0 °F 55.0 °F 93% 29.69 in 10.0 mi East 8.1 mph - 0.00 in Rain Light Rain
4:53 PM 57.0 °F 55.0 °F 93% 29.67 in 10.0 mi East 15.0 mph - 0.03 in Rain Light Rain
5:53 PM 55.9 °F 55.0 °F 97% 29.65 in 10.0 mi East 11.5 mph - 0.03 in   Overcast
6:53 PM 55.9 °F 54.0 °F 93% 29.64 in 10.0 mi ESE 13.8 mph - 0.00 in Rain Light Rain
7:53 PM 55.0 °F 53.1 °F 93% 29.63 in 7.0 mi ESE 20.7 mph - 0.01 in Rain Light Rain
8:53 PM 55.0 °F 53.1 °F 93% 29.62 in 9.0 mi East 15.0 mph - 0.02 in Rain Light Rain
9:53 PM 55.0 °F 53.1 °F 93% 29.62 in 10.0 mi East 15.0 mph - 0.00 in Rain Light Rain
10:53 PM 55.0 °F 53.1 °F 93% 29.63 in 10.0 mi ESE 18.4 mph - 0.01 in Rain Light Rain
11:53 PM 55.0 °F 53.1 °F 93% 29.63 in 10.0 mi East 15.0 mph - 0.00 in Rain Light Rain